[[{"header":{"parameterUnit":"m.s-1","parameterCategory":1,"la1":30.2991,"la2":30.254,"lo1":-89.0895,"lo2":-89.0444,"dy":0.0017,"dx":0.0017,"nx":28,"ny":28,"refTime":"2024-07-05T09:00:00:Z","depth":0,"parameterNumber":2,"parameterNumberName":"U-component_of_WINDS"},"data":[0,0,0,0,0,0,0,0,0,0,0,0,0,0,0,0,0,0,0,0,0,0,0,0,0,0,0,0,0,0,0,0,0,0,0,0,0,0,0,0,0,0,0,0,0,0,0,0,0,0,0,0,0,0,0,0,0,0,2.6149,2.615,0,2.6204,2.6204,2.6205,2.6134,2.6131,2.6129,2.6126,2.6182,2.6186,2.619,0,0,0,0,0,0,0,0,0,0,0,0,0,2.5982,2.5986,2.6149,2.615,2.615,2.6204,2.6204,2.6205,2.6134,2.6131,2.6128,2.6125,2.6181,2.6186,2.619,0,0,0,0,0,0,0,0,0,0,0,0,0,2.6048,2.5987,2.6149,2.6122,2.612,2.6204,2.6204,2.6205,2.6135,2.6131,2.6127,2.6124,2.618,2.6185,2.6191,2.6305,0,0,2.6209,2.6211,0,0,0,0,0,0,0,0,2.6044,2.6054,2.6125,2.6124,2.6122,2.6158,2.6166,2.6239,2.6136,2.6129,2.6126,2.6122,2.6177,2.6183,2.6202,2.6307,2.631,2.6209,2.6213,2.6216,2.6217,0,0,0,0,0,0,0,2.604,2.6051,2.6171,2.6126,2.6124,2.6106,2.6111,2.618,2.6174,2.6129,2.6124,2.6132,2.6176,2.6197,2.6203,2.631,2.6209,2.6214,2.6218,2.622,2.6509,2.6513,0,0,0,0,0,0,2.6039,2.6048,2.6169,2.6172,2.6073,2.6112,2.6118,2.615,2.6173,2.6173,2.6135,2.6128,2.6188,2.6196,2.6204,2.6337,2.6215,2.6221,2.6224,2.6505,2.651,2.6515,0,0,0,0,0,0,2.6035,2.605,2.6167,2.6109,2.6122,2.6119,2.6156,2.6153,2.6174,2.6178,2.6176,2.6157,2.6186,2.6196,2.628,2.6338,2.6224,2.6229,2.65,2.6507,2.6512,2.6604,0,0,0,0,0,0,2.6031,2.6049,2.6093,2.611,2.6126,2.6241,2.616,2.6157,2.6184,2.6176,2.6198,2.6198,2.6183,2.6271,2.6286,2.6344,2.6233,2.6495,2.6503,2.651,2.6595,2.6612,2.6627,0,0,0,0,0,2.6025,2.6117,2.6095,2.611,2.618,2.6245,2.6254,2.6235,2.6189,2.6232,2.6235,2.6197,2.633,2.6281,2.6296,2.6357,2.6491,2.6501,2.651,2.6588,2.6609,2.6626,0,0,0,0,0,0,2.6106,2.6118,2.6095,2.6195,2.6219,2.6233,2.6286,2.6258,2.6296,2.6286,2.6262,2.6267,2.6356,2.6365,2.631,2.6467,2.6403,2.6416,2.6457,2.6477,2.6492,2.6487,2.6238,0,0,0,0,0,2.6135,2.6187,2.6196,2.6283,2.6297,2.629,2.6318,2.6301,2.6325,2.6335,2.6344,2.6369,2.6416,2.6447,2.6491,2.6597,2.66,2.6647,2.6662,2.6675,2.6686,2.6741,2.6761,2.6545,2.6545,2.6545,0,0,2.6197,2.621,2.6244,2.63,2.6316,2.637,2.6299,2.6359,2.6399,2.6345,2.6423,2.643,2.6457,2.6552,2.6594,2.6562,2.6746,2.6687,2.6697,2.6701,2.6752,2.6773,2.6791,2.6552,2.6551,2.655,0,0,2.6335,2.6351,2.6425,2.6443,2.647,2.6465,2.6483,2.6501,2.6503,2.6582,2.6542,2.6588,2.6671,2.669,2.6711,2.6857,2.6823,2.6872,2.6953,2.7006,2.7023,2.7038,2.7088,2.7106,2.6883,2.6883,2.6883,0,2.6407,2.6487,2.6466,2.6529,2.6554,2.6507,2.6581,2.66,2.664,2.6658,2.6622,2.6722,2.6737,2.6835,2.687,2.689,2.6908,2.6868,2.7023,2.7037,2.7051,2.7098,2.7117,2.6889,2.6888,2.6888,2.6887,0,2.6574,2.663,2.6686,2.6724,2.6756,2.6824,2.6813,2.6847,2.6828,2.6827,2.6907,2.6923,2.6968,2.6991,2.6973,2.7086,2.7065,2.7027,2.6961,2.7077,2.7121,2.7139,2.6897,2.6895,2.6893,2.6892,0,0,2.6763,2.6789,2.681,2.6826,2.6852,2.6895,2.6961,2.7004,2.7033,2.7063,2.7116,2.7187,2.7151,2.7174,2.7159,2.7207,2.7318,2.7162,2.7162,2.7188,2.7441,2.7468,2.7489,2.7297,2.73,2.7303,2.7438,0,2.6899,2.7012,2.6995,2.7104,2.7154,2.7111,2.7168,2.719,2.7191,2.7233,2.7234,2.7283,2.7234,2.7247,2.7293,2.7295,2.7368,2.7285,2.7345,2.7347,2.7337,2.7512,2.7541,2.7667,2.7455,2.7458,2.746,0,2.7073,2.7108,2.7222,2.7238,2.7259,2.731,2.7348,2.739,2.7414,2.7411,2.7437,2.7413,2.7478,2.7413,2.7502,2.7446,2.7469,2.7474,2.7479,2.7481,2.7409,2.7517,2.7707,2.7725,2.7487,2.7485,2.7483,0,2.7196,2.7272,2.7349,2.7365,2.7387,2.7424,2.7435,2.7455,2.7482,2.7516,2.7533,2.7574,2.7596,2.7629,2.7616,2.757,2.7706,2.7641,2.7704,2.7704,2.7732,2.773,2.7926,2.7752,2.7752,2.7751,2.7751,0,2.7349,2.742,2.7405,2.7452,2.7529,2.751,2.7587,2.7593,2.7611,2.7658,2.7624,2.7669,2.7651,2.7694,2.7685,2.7758,2.7769,2.7768,2.7764,2.7769,2.7769,2.7783,2.7773,2.7756,2.7755,2.7754,2.7753,0,2.7499,2.7492,2.7573,2.7587,2.7593,2.7649,2.7661,2.7705,2.7703,2.7763,2.7776,2.7773,2.7823,2.7814,2.7869,2.7862,2.7953,2.794,2.7945,2.7941,2.8004,2.7997,2.8213,2.8239,2.8051,2.8053,2.8054,0,2.7595,2.7648,2.7668,2.7697,2.7711,2.7758,2.7785,2.7768,2.7798,2.7829,2.7869,2.7915,2.7951,2.8033,2.8035,2.8077,2.8063,2.8136,2.8069,2.8072,2.8061,2.8057,2.8061,2.8148,2.815,2.8152,2.8153,0,2.7766,2.776,2.78,2.784,2.7873,2.7904,2.7931,2.7956,2.7941,2.7976,2.8026,2.8055,2.811,2.8156,2.8195,2.8206,2.8177,2.8175,2.8191,2.8196,2.8196,2.8194,2.7979,2.8169,2.8168,2.8167,2.8166,2.8165,2.789,2.7935,2.7955,2.8001,2.802,2.8046,2.8087,2.8091,2.8132,2.8175,2.8163,2.822,2.8241,2.829,2.8306,2.8349,2.8322,2.8346,2.8352,2.8358,2.8364,2.8191,2.8357,2.8356,2.8356,2.8355,2.8355,0,2.8057,2.8068,2.8111,2.8149,2.8185,2.8156,2.8184,2.8216,2.8266,2.8289,2.8325,2.8382,2.8426,2.8433,2.8475,2.8508,2.8496,2.8519,2.8516,2.8518,2.8387,2.8368,2.8529,2.8529,2.8529,2.8528,2.8528,2.8528,2.8148,2.8221,2.8217,2.8299,2.831,2.8364,2.8383,2.8406,2.8424,2.8489,2.8525,2.8529,2.8545,2.8588,2.8627,2.8628,2.8644,2.8673,2.8668,2.8545,2.8528,2.8511,2.8492,2.8677,2.8677,2.8795,2.8796,2.8797]},{"header":{"parameterUnit":"m.s-1","parameterCategory":1,"la1":30.2991,"la2":30.254,"lo1":-89.0895,"lo2":-89.0444,"dy":0.0017,"dx":0.0017,"nx":28,"ny":28,"refTime":"2024-07-05T09:00:00:Z","depth":0,"parameterNumber":3,"parameterNumberName":"V-component_of_WINDS"},"data":[0,0,0,0,0,0,0,0,0,0,0,0,0,0,0,0,0,0,0,0,0,0,0,0,0,0,0,0,0,0,0,0,0,0,0,0,0,0,0,0,0,0,0,0,0,0,0,0,0,0,0,0,0,0,0,0,0,0,1.8583,1.8583,0,1.8557,1.8557,1.8556,1.8501,1.85,1.8499,1.8498,1.8471,1.8471,1.8471,0,0,0,0,0,0,0,0,0,0,0,0,0,1.8584,1.8585,1.8583,1.8583,1.8582,1.8557,1.8557,1.8556,1.8501,1.85,1.8499,1.8497,1.8471,1.8471,1.8471,0,0,0,0,0,0,0,0,0,0,0,0,0,1.8574,1.8585,1.8583,1.8552,1.8549,1.8557,1.8557,1.8556,1.8502,1.85,1.8498,1.8497,1.8471,1.8471,1.8472,1.8508,0,0,1.8473,1.8473,0,0,0,0,0,0,0,0,1.8574,1.8574,1.8557,1.8554,1.8551,1.8531,1.8547,1.854,1.8502,1.852,1.8498,1.8496,1.8492,1.8491,1.8489,1.8507,1.8505,1.8473,1.8473,1.8474,1.8474,0,0,0,0,0,0,0,1.8575,1.8574,1.8573,1.8557,1.8553,1.8539,1.8535,1.8545,1.8515,1.8518,1.8514,1.8511,1.849,1.8489,1.8488,1.8505,1.8473,1.8473,1.8474,1.8474,1.8548,1.855,0,0,0,0,0,0,1.858,1.8575,1.8574,1.8572,1.8559,1.854,1.8536,1.8539,1.8515,1.851,1.8513,1.8509,1.8489,1.8488,1.8487,1.8527,1.8474,1.8474,1.8474,1.8547,1.8549,1.8551,0,0,0,0,0,0,1.8581,1.8581,1.8575,1.8572,1.8571,1.8542,1.8545,1.8539,1.8538,1.8511,1.8506,1.8518,1.8488,1.8487,1.8503,1.8525,1.8474,1.8475,1.8545,1.8547,1.855,1.8607,0,0,0,0,0,0,1.8581,1.8581,1.8595,1.8573,1.8571,1.8591,1.8546,1.854,1.8539,1.8534,1.8514,1.8509,1.8486,1.8502,1.8503,1.8525,1.8475,1.8543,1.8546,1.8549,1.8603,1.8611,1.8618,0,0,0,0,0,1.8581,1.8613,1.8596,1.8596,1.8588,1.8593,1.8591,1.8564,1.8541,1.8554,1.8537,1.851,1.8523,1.8504,1.8505,1.8527,1.8541,1.8545,1.8549,1.8599,1.8609,1.8618,0,0,0,0,0,0,1.8638,1.8609,1.8591,1.8616,1.8607,1.8583,1.8599,1.8576,1.8573,1.8568,1.8534,1.8531,1.8551,1.8541,1.8521,1.856,1.8527,1.8531,1.8566,1.8575,1.8583,1.8584,1.8475,0,0,0,0,0,1.8654,1.866,1.8635,1.866,1.8656,1.8629,1.863,1.8609,1.8599,1.8595,1.8578,1.8569,1.857,1.8572,1.8572,1.8601,1.8595,1.8616,1.8624,1.863,1.8634,1.8647,1.8655,1.8563,1.8563,1.8563,0,0,1.8686,1.8671,1.8677,1.8671,1.8661,1.8668,1.8626,1.8635,1.864,1.8596,1.861,1.8598,1.8585,1.8607,1.8616,1.8599,1.8658,1.8635,1.8641,1.8641,1.8652,1.866,1.8668,1.8566,1.8565,1.8565,0,0,1.8748,1.8738,1.8757,1.8748,1.8734,1.8715,1.872,1.8699,1.8689,1.8703,1.867,1.8674,1.8678,1.867,1.8666,1.8723,1.8698,1.8724,1.8764,1.8776,1.8784,1.879,1.8809,1.8816,1.8728,1.8728,1.8728,0,1.879,1.8799,1.877,1.878,1.8778,1.8738,1.8756,1.8749,1.8737,1.8735,1.8716,1.8719,1.8708,1.8727,1.874,1.8739,1.8742,1.8726,1.8785,1.8791,1.8796,1.8814,1.8822,1.8731,1.8731,1.8731,1.873,0,1.885,1.8857,1.8874,1.8862,1.8861,1.8876,1.8848,1.8851,1.883,1.8813,1.8826,1.8811,1.8807,1.881,1.879,1.8825,1.8815,1.8791,1.8758,1.8809,1.8825,1.8832,1.8736,1.8735,1.8734,1.8733,0,0,1.8948,1.8918,1.8925,1.8918,1.8899,1.8904,1.8916,1.8911,1.8914,1.8906,1.8915,1.8918,1.8895,1.8891,1.887,1.8882,1.8926,1.8856,1.8855,1.8868,1.8962,1.8979,1.8988,1.8909,1.891,1.8911,1.8962,0,1.9005,1.9024,1.8997,1.9023,1.9028,1.8989,1.9,1.8989,1.8973,1.8975,1.8957,1.896,1.893,1.8927,1.8937,1.8919,1.8944,1.8915,1.8916,1.8916,1.8919,1.8996,1.9015,1.9064,1.8969,1.897,1.897,0,1.9074,1.9069,1.9095,1.9072,1.9074,1.9084,1.9076,1.9078,1.9065,1.9052,1.9047,1.9022,1.9031,1.8999,1.9011,1.8992,1.899,1.8981,1.8983,1.8981,1.8946,1.8996,1.9079,1.9086,1.898,1.898,1.8979,0,1.9141,1.9141,1.9155,1.9151,1.9126,1.9134,1.9124,1.9108,1.9107,1.91,1.9098,1.9094,1.9091,1.9087,1.906,1.904,1.9075,1.9041,1.9064,1.9064,1.9073,1.9072,1.9156,1.9074,1.9073,1.9073,1.9073,0,1.9207,1.9224,1.9185,1.9194,1.9211,1.9179,1.9197,1.9183,1.917,1.9175,1.9142,1.9147,1.9112,1.9113,1.9092,1.9104,1.9104,1.9093,1.9087,1.9096,1.9097,1.9094,1.9089,1.9075,1.9075,1.9074,1.9074,0,1.9285,1.926,1.9273,1.9248,1.9242,1.9255,1.9234,1.924,1.9222,1.9229,1.9228,1.92,1.9199,1.9172,1.9167,1.9153,1.9173,1.9161,1.9177,1.9173,1.9197,1.9195,1.9281,1.929,1.9203,1.9204,1.9205,0,1.9328,1.934,1.9316,1.9317,1.9308,1.931,1.9308,1.9277,1.9276,1.926,1.9269,1.9266,1.9261,1.9262,1.924,1.9235,1.9223,1.9253,1.9222,1.9229,1.9222,1.9221,1.9221,1.926,1.9261,1.9262,1.9263,0,1.9407,1.9393,1.9392,1.9385,1.9384,1.9377,1.9368,1.9371,1.9337,1.9337,1.9336,1.9333,1.9326,1.9323,1.9313,1.9302,1.9276,1.9273,1.9277,1.9286,1.9294,1.9288,1.9194,1.9271,1.927,1.9269,1.9269,1.9268,1.9468,1.9476,1.946,1.9459,1.9449,1.9441,1.9446,1.9427,1.9426,1.9418,1.94,1.9401,1.9386,1.937,1.9361,1.9362,1.9346,1.9353,1.9355,1.9357,1.9361,1.9295,1.936,1.936,1.9359,1.9359,1.9359,0,1.9544,1.9531,1.9531,1.9519,1.9518,1.9493,1.9482,1.9483,1.9484,1.9472,1.9468,1.9466,1.9462,1.944,1.9434,1.9438,1.9426,1.9437,1.9436,1.9434,1.9376,1.9372,1.9447,1.9447,1.9447,1.9447,1.9447,1.9447,1.9583,1.9595,1.958,1.9586,1.9573,1.9574,1.957,1.9562,1.9552,1.9551,1.9548,1.9533,1.9516,1.9508,1.9503,1.9496,1.9495,1.951,1.95,1.9446,1.9438,1.943,1.9426,1.9511,1.9511,1.9557,1.9557,1.9558]}]]